Location: Unspecified
(0.0000°N, 0.0000°E)
Time: 10:26:05
(UTC+00:00)

N. Korean satellite - Visible Passes

Search period start: 16 July 2019 00:00
Search period end: 26 July 2019 00:00
Orbit: 456 x 508 km, 97.2° (Epoch: 15 July)

Date Brightness Start Highest point End Pass type
(mag) Time Alt. Az. Time Alt. Az. Time Alt. Az.
16 Jul 9.6 04:52:34 10° ENE 04:54:36 14° ESE 04:56:38 10° SE visible
18 Jul 6.9 05:33:58 10° NNE 05:37:40 74° E 05:41:23 10° S visible
19 Jul 8.8 05:09:27 10° NE 05:12:38 27° ESE 05:15:49 10° SSE visible
19 Jul 9.8 18:32:13 10° WSW 18:33:18 11° W 18:34:22 10° W visible
20 Jul 9.9 04:46:32 10° E 04:47:36 11° ESE 04:48:41 10° ESE visible
22 Jul 7.4 05:27:01 10° NNE 05:30:39 55° E 05:34:17 10° S visible
23 Jul 9.2 05:02:45 10° NE 05:05:37 21° E 05:08:29 10° SSE visible
